Location: Pitton
(51.0667°N, 1.7000°W)
Time: 09:28:33
(UTC+00:00)

Cosmos 2341 Rocket - Pass Details

Date: 17 September 2019
Orbit: 967 x 1005 km, 82.9° (Epoch: 18 October)

Event Time Altitude Azimuth Distance (km) Brightness Sun altitude
Rises 19:37:03 0° 350° (N) 3,702 7.5 -13.1°
Reaches altitude 10° 19:39:36 10° 353° (N) 2,744 6.7 -13.4°
Maximum altitude 19:45:53 73° 78° (ENE) 1,021 3.9 -14.3°
Drops below altitude 10° 19:52:05 10° 163° (SSE) 2,707 6.0 -15.2°
Enters shadow 19:53:03 - 164° (SSE) 3,070 6.2 -15.4°
